Weather in Gurovo

Russia / Omsk Oblast     56°18′06″N   75°08′40″E
temp.,
°C
wind,
m/s
gust,
m/s
humid.,
%
clouds,
%
prec.,
mm/h
press.,
hPa
HPBL,
m
22 october, fri
fri2200:00+6ssw51066100 0.1 1004572
03:00+4ssw5107276 0.0 1004798
06:00+1ssw61184100 0.0 1005616
09:00+2sw71295100 0.5 1005831
12:00+2wsw7118893 0.9 1009914
15:00+5sw610475 0.0 10101273
18:00+3sw71355100 0.0 10121185
21:00+4ssw7135775 0.0 10121125
23 october, sat
sat2300:00+2ssw71372100 0.0 1011890
03:00+3ssw71282100 0.0 1011889
06:00+3ssw71491100 0.0 1009628
09:00+4ssw81692100 2.0 1006797
12:00+6sw91581100 2.7 10051000
15:00+7wsw81574100 0.0 1006861
18:00+8wsw7147611 0.0 1008776
21:00+7wsw6158358 0.0 1009605
24 october, sun
sun2400:00+8wsw7157889 0.0 1010798
03:00+7wsw716765 0.1 1011687
06:00+6wsw714825 0.1 1013611
09:00+6wsw613874 0.0 1015617
12:00+9wsw711705 0.0 10151088
15:00+10wsw51063100 0.0 10161192
18:00+8sw3677100 0.0 1017123
21:00+8ssw51183100 0.1 1016427
25 october, mon
mon2500:00+9s61482100 0.6 1013576
03:00+9sw71476100 0.4 1011654
06:00+8sw71458100 0.4 1011583
09:00+8sw71456100 0.0 1011638
12:00+9wsw61257100 0.0 1012800
15:00+10w596191 0.0 10141083
18:00+6w236993 0.0 101556
21:00+6w2271100 0.0 101623
26 october, tue
tue2600:00+6s1169100 0.0 101514
03:00+6sse3680100 0.0 1013191
06:00+6sse3892100 0.8 1011342
09:00+7ssw51095100 2.2 1008576
12:00+8s41089100 2.8 1005690
15:00+9sw61165100 0.1 10011114
18:00+7wsw71188100 1.8 10011211
21:00+2w71280100 0.1 1004915